El Centro, CA

2:47 PM PDT on April 24, 2017 (GMT -0700)
El Centro Naval Air Facility

Weather History for KNJK - September, 2012

Change the Weather History Date:

Wednesday, September 19, 2012

  Actual Average Record
Temperature  
Mean Temperature 89 °F -  
Max Temperature 107 °F 98 °F 109 °F (2000)
Min Temperature 73 °F 73 °F 59 °F (2006)
Cooling Degree Days 24    
Growing Degree Days 39 (Base 50)    
Moisture  
Dew Point 49 °F    
Average Humidity 26    
Maximum Humidity 46    
Minimum Humidity 15    
Precipitation  
Precipitation 0.00 in - - ()
Sea Level Pressure  
Sea Level Pressure 29.88 in    
Wind  
Wind Speed 6 mph (NW)    
Max Wind Speed 12 mph    
Max Gust Speed -    
Visibility 10 miles    
Events      
Averages and records for this station are not official NWS values.
T = Trace of Precipitation, MM = Missing Value Source: NWS Daily Summary

Daily Weather History Graph

Daily Weather History Graph

Search for Another Location

Airport or City:

Trip Planner

Search our weather history database for the weather conditions in past years. The results will help you decide how hot, cold, wet, or windy it might be!

Date:

Astronomy

Sep. 19, 2012 Rise Set
Actual Time 6:29 AM PDT 6:42 PM PDT
Civil Twilight 6:04 AM PDT 7:07 PM PDT
Nautical Twilight 5:35 AM PDT 7:36 PM PDT
Astronomical Twilight 5:06 AM PDT 8:05 PM PDT
Moon 10:27 AM PDT (9/19) 9:13 PM PDT (9/19)
Length of Visible Light 13h 02m
Length of Day
12h 13m
Waxing Crescent, 18% of the Moon is Illuminated
Sep 19
Waxing Crescent
Sep 22
First Quarter
Sep 29
Full
Oct 8
Last Quarter
Oct 15
New

Hourly Weather History & Observations

Time (PDT) Temp. Heat Index Dew Point Humidity Pressure Visibility Wind Dir Wind Speed Gust Speed Precip Events Conditions
12:56 AM 84.9 °F - 52.0 °F 32% 29.88 in 10.0 mi WSW 10.4 mph - N/A   Clear
1:56 AM 84.0 °F - 51.1 °F 32% 29.88 in 10.0 mi WSW 11.5 mph - N/A   Clear
2:56 AM 78.1 °F - 50.0 °F 37% 29.88 in 10.0 mi West 6.9 mph - N/A   Clear
3:56 AM 75.9 °F - 48.0 °F 37% 29.88 in 10.0 mi West 6.9 mph - N/A   Clear
4:56 AM 73.9 °F - 46.9 °F 38% 29.88 in 10.0 mi West 6.9 mph - N/A   Clear
5:56 AM 75.9 °F - 46.0 °F 35% 29.89 in 10.0 mi WNW 6.9 mph - N/A   Clear
6:56 AM 73.9 °F - 52.0 °F 46% 29.91 in 10.0 mi SSE 4.6 mph - N/A   Clear
7:56 AM 81.0 °F - 48.9 °F 33% 29.93 in 10.0 mi Calm Calm - N/A   Clear
8:56 AM 87.1 °F - 46.9 °F 25% 29.94 in 10.0 mi SW 4.6 mph - N/A   Clear
9:56 AM 91.0 °F - 48.0 °F 23% 29.94 in 10.0 mi Calm Calm - N/A   Clear
10:56 AM 95.0 °F - 46.9 °F 19% 29.94 in 10.0 mi Calm Calm - N/A   Clear
11:56 AM 100.9 °F - 45.0 °F 15% 29.93 in 10.0 mi Calm Calm - N/A   Clear
12:56 PM 102.9 °F - 46.9 °F 15% 29.90 in 10.0 mi Variable 4.6 mph - N/A   Clear
1:56 PM 104.0 °F - 48.0 °F 15% 29.87 in 10.0 mi East 6.9 mph - N/A   Clear
2:56 PM 105.1 °F - 48.0 °F 15% 29.85 in 10.0 mi Variable 3.5 mph - N/A   Clear
3:56 PM 105.1 °F - 48.0 °F 15% 29.83 in 10.0 mi Calm Calm - N/A   Clear
4:56 PM 105.1 °F - 48.0 °F 15% 29.82 in 10.0 mi NNE 5.8 mph - N/A   Clear
5:56 PM 104.0 °F - 48.9 °F 16% 29.82 in 10.0 mi North 3.5 mph - N/A   Clear
6:56 PM 98.1 °F - 52.0 °F 21% 29.82 in 10.0 mi NNE 4.6 mph - N/A   Clear
7:56 PM 91.9 °F 89.5 °F 53.1 °F 27% 29.84 in 10.0 mi ENE 4.6 mph - N/A   Clear
8:56 PM 90.0 °F 87.5 °F 53.1 °F 28% 29.86 in 10.0 mi North 4.6 mph - N/A   Clear
9:56 PM 88.0 °F 85.7 °F 53.1 °F 30% 29.86 in 10.0 mi North 4.6 mph - N/A   Clear
10:56 PM 86.0 °F 84.2 °F 54.0 °F 33% 29.87 in 10.0 mi Calm Calm - N/A   Clear
11:56 PM 84.0 °F - 52.0 °F 33% 29.87 in 10.0 mi WNW 8.1 mph - N/A   Clear